Location: Stony Cross
(50.9000°N, 1.6333°W)
Time: 19:33:42
(UTC+00:00)

Daily predictions for brighter satellites

Satellite Brightness Start Highest point End
(mag) Time Altitude Azimuth Time Altitude Azimuth Time Altitude Azimuth
Cosmos 2237 Rocket 2.2 18:27:54 10° NNW 18:33:39 74° ENE 18:39:21 10° SE
Cosmos 1437 Rocket 4.2 18:33:31 10° NNE 18:36:15 18° ENE 18:38:57 10° ESE
Cosmos 1441 Rocket 3.1 18:32:31 10° S 18:36:15 65° E 18:40:00 10° NNE
Cosmos 2333 Rocket 3.3 18:31:05 10° NW 18:36:34 49° WSW 18:42:03 10° S
USA 186 3.4 18:34:35 10° ESE 18:37:07 20° ENE 18:39:40 10° NNE
ISS -2.5 18:34:31 10° SSW 18:37:20 26° SSE 18:40:10 10° E
Cosmos 2056 Rocket 4.2 18:33:32 10° SSE 18:38:18 33° ESE 18:43:04 10° NE
ERBS 2.4 18:36:04 10° WNW 18:39:27 70° NNE 18:42:50 10° ESE
Cosmos 1939 Rocket 2.8 18:36:15 10° SSE 18:40:03 58° ENE 18:43:52 10° N
USA 116 3.4 18:37:10 10° NNE 18:41:03 78° ESE 18:44:28 10° S
Timation 2 Rocket 4.3 18:36:47 10° SW 18:43:17 74° WNW 18:49:33 10° NNE
Cosmos 1140 Rocket 3.6 18:38:12 10° NNW 18:43:19 55° ENE 18:48:22 10° SE
Cosmos 1461 3.6 18:39:33 10° WSW 18:43:27 52° NW 18:47:21 10° NE
Cosmos 1980 3.8 18:38:23 10° NNW 18:44:06 90° ESE 18:49:45 10° SSE
ATLAS 2AS CENTAUR R/B 4.0 18:39:43 10° NW 18:46:58 46° WSW 18:53:39 10° S
Cosmos 1544 3.0 18:45:36 10° S 18:49:13 90° ENE 18:52:52 10° N
Cosmos 1624 Rocket 4.4 18:44:28 10° S 18:49:16 39° ESE 18:54:05 10° NE
Cosmos 1025 Rocket 4.5 18:47:00 10° NNW 18:51:02 42° W 18:55:04 10° SSW
Cosmos 1954 Rocket 4.2 18:48:49 10° NNW 18:53:57 52° ENE 18:58:59 10° SE
Okean 1 Rocket 3.0 18:49:53 10° S 18:54:14 86° E 18:58:39 10° N
SKYMED 2 4.5 18:51:23 10° N 18:55:38 54° WNW 18:59:52 10° SSW
EO 1 Delta rocket 4.3 18:56:26 10° SSE 19:02:22 59° ENE 19:07:16 10° N
Cosmos 2219 Rocket 4.0 18:57:37 10° NW 19:02:32 32° WSW 19:07:27 10° SSW
Cosmos 1707 3.0 19:00:22 10° NNW 19:04:18 73° W 19:08:12 10° S
Cosmos 2341 Rocket 4.0 19:00:40 10° N 19:06:57 75° E 19:13:09 10° SSE
Cosmos 1626 4.3 19:06:04 10° NE 19:07:13 11° ENE 19:07:34 11° ENE
SL-16 R/B 2.4 19:01:46 10° NNW 19:07:24 57° NE 19:12:43 11° SE
Cosmos 2181 Rocket 4.3 19:01:50 10° SSE 19:07:46 47° E 19:13:50 10° NNE
GEOS 3 Rocket 3.6 19:05:54 10° SE 19:10:59 81° NE 19:16:09 10° NW
Meteor 1-4 Rocket 2.4 19:09:42 10° N 19:13:15 83° ENE 19:16:44 10° SSE
Cosmos 2366 rocket 4.2 19:10:18 10° N 19:16:33 54° ENE 19:22:44 10° SSE
Cosmos 2218 Rocket 4.1 19:12:35 10° N 19:18:54 59° ENE 19:25:06 10° SSE
Cosmos 1371 Rocket 4.0 19:16:20 10° SSW 19:21:40 80° ESE 19:27:04 10° NNE
GP-B 4.1 19:18:26 10° N 19:22:45 49° W 19:27:01 10° SSW
SL-8 Rocket 3.9 19:18:05 10° N 19:24:17 73° ENE 19:30:26 10° SSE
RESURS DK-1 3.0 19:20:23 10° NNW 19:24:18 39° NE 19:26:21 23° ESE
Cosmos 2082 4.1 19:19:25 10° S 19:24:43 40° ESE 19:30:02 10° NE
Cosmos 1892 Rocket 3.6 19:20:32 10° NNW 19:25:00 84° W 19:29:24 10° S
SPOT 3 Rocket 3.5 19:19:57 10° SSE 19:25:02 64° ENE 19:30:10 10° N
ARGOS 3.4 19:20:36 13° SE 19:25:14 48° ENE 19:30:26 10° N
FREGAT/IRIS 2.6 19:24:06 10° S 19:26:54 73° WSW 19:29:43 10° NNW
Meteor 2-5 Rocket 3.8 19:21:13 10° N 19:27:05 73° ENE 19:33:01 10° SSE
Resurs 01 Rocket 2.6 19:26:29 22° ESE 19:28:21 30° ENE 19:32:14 10° N
Cosmos 676 Rocket 4.1 19:24:06 10° NNW 19:29:23 83° WSW 19:34:36 10° SSE
Cosmos 1452 Rocket 4.1 19:27:37 10° SSE 19:32:19 34° ESE 19:37:02 10° NE
CZ-2C R/B 3.7 19:30:52 21° ESE 19:34:02 40° ENE 19:39:16 10° N
Cosmos 1959 Rocket 4.4 19:29:50 10° N 19:35:59 74° E 19:42:10 10° SSE
CZ-2C R/B 3.6 19:33:29 10° NNE 19:37:56 64° ESE 19:42:19 10° S
Cosmos 2227 Rocket 2.1 19:32:51 10° SSW 19:38:28 74° ESE 19:44:10 10° NNE
Cosmos 2084 Rocket 3.4 19:34:06 10° SW 19:38:33 78° SE 19:43:02 10° NE
SL-14 R/B 4.2 19:36:53 10° N 19:40:22 28° ENE 19:40:46 28° E
SJ-6B 2.9 19:41:08 12° SSE 19:44:57 85° WSW 19:49:01 10° NNW
Cosmos 2219 3.6 19:40:12 10° SW 19:45:55 66° WNW 19:51:40 10° NNE
Cosmos 1766 3.2 19:43:49 10° S 19:47:41 59° E 19:51:33 10° NNE
Cosmos 2297 Rocket 2.1 19:42:48 10° SSW 19:48:28 89° SE 19:54:11 10° NNE
ADEOS Rocket 3.6 19:41:49 10° NNE 19:49:07 54° E 19:56:42 10° S
CZ-4C R/B 4.0 19:45:56 10° NW 19:51:24 29° NNE 19:56:54 13° ENE
H-2A R/B 1.9 19:49:53 18° SSE 19:53:41 82° ENE 19:58:50 10° NNW
SL-8 R/B 3.9 19:53:12 10° W 19:57:55 58° SSW 19:59:31 37° SE
Cosmos 405 Rocket 3.7 19:56:45 10° SSW 20:00:19 46° WNW 20:03:59 10° N
SL-08 RB Rocket 3.7 19:58:56 33° SE 20:00:59 68° ENE 20:05:38 10° N
Cosmos 1850 Rocket 3.9 19:57:18 10° NNW 20:02:32 79° ENE 20:04:53 33° SSE
Cosmos 1674 3.0 20:00:23 10° NNW 20:04:04 64° W 20:06:06 25° S
Cosmos 1544 Rocket 3.7 20:01:10 10° SSW 20:05:37 79° W 20:10:07 10° N
Cosmos 1455 Rocket 3.5 20:01:13 10° SSW 20:05:38 65° WNW 20:10:07 10° N
Cosmos 1943 3.8 20:00:48 10° NNW 20:06:12 41° NE 20:07:51 34° E
ASTEX 1 4.4 20:02:21 10° N 20:07:02 47° WNW 20:11:42 10° SSW
Lacrosse 5 rocket 1.0 20:03:23 10° WSW 20:07:04 84° NNW 20:08:05 47° NE
USA 186 3.4 20:04:58 12° SSW 20:07:51 35° W 20:11:02 10° NNW
USA 234 3.8 20:05:27 13° ENE 20:11:13 57° N 20:17:36 10° W
BREEZE M DEB (TANK) 2.2 20:09:23 10° W 20:11:54 69° S 20:12:29 57° SE
Cosmos 1437 Rocket 3.7 20:09:07 10° NNW 20:12:45 44° W 20:15:10 19° SSW
ISS -3.6 20:10:28 10° WSW 20:13:24 66° WSW 20:13:24 66° WSW
SPOT 5 4.4 20:14:47 21° NE 20:14:47 21° NE 20:18:32 10° N
ERBS 4.2 20:12:54 10° W 20:15:34 22° SW 20:16:07 21° SSW
Cosmos 2237 Rocket 4.4 20:12:51 10° NW 20:17:08 22° W 20:21:25 10° SSW
Cosmos 1934 Rocket 4.4 20:13:22 10° N 20:19:11 42° ENE 20:20:14 39° E
ERS-1 Rocket 4.1 20:20:57 28° ENE 20:20:57 28° ENE 20:25:08 10° N
Cosmos 1420 Rocket 4.0 20:16:32 10° SSW 20:21:51 85° WNW 20:27:14 10° NNE
Cosmos 1626 Rocket 3.9 20:17:56 10° NNW 20:22:13 61° W 20:24:09 30° SSW
Terra 3.7 20:25:43 17° NE 20:25:43 17° NE 20:28:14 10° NNE
Cosmos 1825 Rocket 3.9 20:25:20 10° N 20:29:01 49° NE 20:29:01 49° NE
SL-24 R/B 4.4 20:28:10 43° S 20:29:46 80° WSW 20:35:04 10° NNW
Meteor 1-24 Rocket 4.5 20:25:51 10° NNW 20:31:31 53° W 20:36:36 13° SSW
Cosmos 1805 4.3 20:30:05 10° SSW 20:33:50 45° WNW 20:37:36 10° N
Meteor 1-21 Rocket 4.3 20:28:38 10° N 20:34:32 64° ENE 20:35:38 54° ESE
Cosmos 1741 Rocket 4.3 20:29:22 10° NNW 20:34:40 63° WSW 20:36:35 38° S
USA 245 4.4 20:36:02 51° E 20:36:40 54° ENE 20:41:50 10° N
Spot 2 Rocket 3.3 20:37:40 67° SE 20:38:13 76° ENE 20:43:16 10° NNW
Cosmos 1758 Rocket 3.7 20:36:57 10° N 20:40:44 63° NNE 20:40:44 63° NNE
Cosmos 1626 2.9 20:39:19 10° NNW 20:42:09 49° NNW 20:42:09 49° NNW
Cosmos 1602 Rocket 4.5 20:40:30 10° NNW 20:44:40 45° W 20:45:54 35° SW
CZ-2C R/B 3.4 20:39:38 10° NNE 20:43:38 38° ENE 20:43:38 38° ENE
Cosmos 1603 3.6 20:41:38 10° NNW 20:47:21 88° WSW 20:48:13 66° SSE
SL-16 R/B 3.8 20:46:22 10° NW 20:51:14 30° WSW 20:54:38 17° SSW
Lacrosse 5 4.0 20:47:03 10° SSW 20:47:46 14° SSW 20:47:46 14° SSW
MetOp-B 4.0 20:51:26 73° SSE 20:52:00 89° ENE 20:57:24 10° NNW
SPOT 1/Viking Rocket 3.9 20:54:02 49° NE 20:54:02 49° NE 20:58:29 10° N
Nadezhda 3 Rocket 3.9 20:55:43 41° S 20:58:04 87° W 21:04:22 10° N
Cosmos 1733 4.4 20:58:14 40° WNW 20:58:15 40° WNW 21:01:54 10° N
RESURS DK-1 4.0 20:58:39 10° NW 21:02:14 28° WSW 21:02:15 28° WSW
Cosmos 2285 Rocket 4.4 20:56:46 10° NNW 21:03:00 48° ENE 21:03:17 48° ENE
Resurs 01 Rocket 2.8 21:04:04 35° WSW 21:04:45 37° W 21:08:55 10° NNW
Cosmos 1605 Rocket 4.1 21:00:32 10° N 21:06:48 61° ENE 21:06:48 61° ENE
DMSP B5D2-2 4.1 21:03:39 10° NNE 21:08:59 81° WNW 21:09:10 79° WSW
Cosmos 1821 Rocket 4.2 21:03:13 10° NNW 21:09:17 63° W 21:10:57 46° SSW
CZ-2C R/B 4.3 21:11:56 29° SW 21:13:54 39° W 21:19:11 10° NNW
Cosmos 1535 Rocket 4.4 21:09:45 10° N 21:16:10 82° W 21:16:50 72° SSW
Cosmos 2227 Rocket 4.2 21:18:19 10° W 21:23:07 28° NW 21:27:58 10° NNE
Cosmos 2297 Rocket 4.4 21:28:45 10° W 21:33:18 24° NW 21:37:52 10° NNE
H-2A R/B 4.5 21:30:47 10° SW 21:33:49 16° W 21:36:56 10° NW
Cosmos 2263 Rocket 3.8 21:43:23 24° NNE 21:43:23 24° NNE 21:45:35 10° NNE
CZ-4C R/B 3.2 21:34:47 10° NW 21:41:24 53° NE 21:42:04 52° NE
Lacrosse 5 rocket 4.0 21:43:05 10° WNW 21:43:46 14° WNW 21:43:46 14° WNW
Cosmos 1943 4.1 21:44:57 10° NW 21:49:40 42° W 21:49:40 42° W
SPOT 5 4.1 21:54:02 41° NNW 21:54:02 41° NNW 21:57:26 10° NNW
USA 234 3.7 21:52:48 52° NE 21:53:45 56° N 22:00:09 10° WNW
ERS-1 Rocket 4.2 22:00:57 38° NW 22:00:57 38° NW 22:04:22 10° NNW
Terra 3.5 22:04:36 31° NNW 22:04:36 31° NNW 22:07:05 10° NNW
CZ-2C R/B 4.0 22:20:09 10° N 22:25:08 36° WNW 22:25:08 36° WNW
Cosmos 2082 Rocket 3.9 23:00:24 10° NNW 23:03:40 28° N 23:03:40 28° N
Cosmos 2263 Rocket 4.1 23:25:03 26° NNW 23:25:03 26° NNW 23:29:13 10° NNE
CZ-4C R/B 3.9 23:23:19 10° NW 23:27:13 35° WNW 23:27:13 35° WNW
Cosmos 2278 Rocket 4.4 23:54:10 18° NE 23:54:10 18° NE 23:55:36 10° NE
